Regional Weather Roundup
Issued by NWS Cleveland, OH

Home | Current Version | Previous Version | Text Only | Print | Product List | Glossary On
Versions: 1 2 3 4 5 6 7 8 9 10 11 12 13 14 15 16 17 18 19 20 21 22 23 24 25 26 27 28 29 30 31 32 33 34 35 36 37 38 39 40 41 42 43 44 45 46 47 48 49 50
000
ASUS41 KCLE 231710
RWRCLE
OHIO REGIONAL WEATHER ROUNDUP
NATIONAL WEATHER SERVICE CLEVELAND, OH
1200 PM EST SUN NOV 23 2014

NOTE: "FAIR" INDICATES FEW OR NO CLOUDS BELOW 12,000 FEET WITH NO
SIGNIFICANT WEATHER AND/OR OBSTRUCTIONS TO VISIBILITY.

OHZ001>008-015>018-024>027-034-035-043-044-231800-
   NORTHWEST OHIO

CITY           SKY/WX    TMP DP  RH WIND       PRES   REMARKS
DEFIANCE       CLOUDY    54  44  69 S10       29.84F
FINDLAY        CLOUDY    55  46  71 SE9       29.86F
TOLEDO EXPRESS CLOUDY    51  45  79 S7        29.86F
TOLEDO EXEC    CLOUDY    53  44  71 S13       29.88F
LIMA           CLOUDY    58  46  64 S15       29.85F
$$

OHZ009>014-019>023-028>033-038-089-231800-
   NORTHEAST OHIO

CITY           SKY/WX    TMP DP  RH WIND       PRES   REMARKS
CLE-HOPKINS    CLOUDY    53  40  61 S12       29.96F
CLE-LAKEFRONT  CLOUDY    54  38  54 SE10G20   29.93F
CUY CO. ARPT   PTSUNNY   54  43  66 S14G23    29.97F
LORAIN-ELYRIA  CLOUDY    51  40  65 S9        29.93F
ASHTABULA      CLOUDY    47  37  68 S8        30.00F
AKRON-CANTON   CLOUDY    55  37  50 S7        29.96F
WOOSTER        PTSUNNY  N/A N/A N/A S8        29.96F
MANSFIELD      CLOUDY    52  39  61 S12       29.93F
YOUNGSTOWN     CLOUDY    50  37  61 SE6       30.00F
$$

OHZ042-051>053-060>062-070>072-077>081-231800-
  SOUTHWEST OHIO

CITY           SKY/WX    TMP DP  RH WIND       PRES   REMARKS
CINC-COVINGTON CLOUDY    58  40  51 SE12      29.85F
CINC-LUNKEN    CLOUDY    60  41  49 VRB6      29.87F
HAMILTON       CLOUDY    59  41  51 SE8       29.86F
DAYTON         PTSUNNY   61  44  53 S15       29.86F
WRIGHT-PAT AFB PTSUNNY   61  42  50 S13       29.86F
DAYTON GENERAL MOSUNNY   61  44  53 SE13      29.85F
WILMINGTON     MOSUNNY   60  42  51 S10       29.88F
$$

OHZ036-037-039>041-045>050-054>059-063>069-073>076-082>088-231800-
  CENTRAL AND SOUTHEAST OHIO

CITY           SKY/WX    TMP DP  RH WIND       PRES   REMARKS
COLUMBUS       PTSUNNY   56  35  45 SE8       29.92F
OSU AIRPORT    PTSUNNY   56  35  45 SE7       29.91F
BOLTON FIELD   CLOUDY    55  37  50 SE9       29.92F
RICKENBACK AFB CLOUDY    58  39  48 SE9       29.91F
NEWARK         PTSUNNY   58  35  42 SE6       29.92F
MARION         CLOUDY    54  40  59 S13       29.91F
LANCASTER      PTSUNNY   60  36  40 SE12      29.93F
ZANESVILLE     MOSUNNY   59  35  40 S9        29.95F
NEW PHILLY     PTSUNNY   59  38  45 VRB6      29.97F
$$


USA.gov is the U.S. government's official web portal to all federal, state and local government web resources and services.